Location: Six Mile Lake
(44.9000°N, 79.7170°W)
Time: 19:12:53
(UTC-04:00)

EO-79 - Pass Details

Date: 05 July 2022
Orbit: 588 x 603 km, 98.0° (Epoch: 16 August)

Event Time Altitude Azimuth Distance (km) Brightness Sun altitude
Rises 04:03:32 0° 1° (N) 2,859 ? -13.1°
Reaches altitude 10° 04:06:02 10° 347° (NNW) 1,954 ? -12.9°
Maximum altitude 04:09:24 24° 294° (WNW) 1,272 ? -12.5°
Enters shadow 04:11:56 14° 249° (WSW) 1,684 ? -12.2°
